Location: Croissy-Beaubourg
(48.8283°N, 2.6696°E)
Time: 16:47:51
(UTC+00:00)

DMSP 5D-3 F17 DEB - Visible Passes

Search period start: 11 August 2022 00:00
Search period end: 21 August 2022 00:00
Orbit: 796 x 806 km, 98.6° (Epoch: 10 August)

Date Brightness Start Highest point End Pass type
(mag) Time Alt. Az. Time Alt. Az. Time Alt. Az.
12 Aug ? 20:43:35 10° SW 20:46:42 16° W 20:49:50 10° NW visible
13 Aug ? 20:15:47 10° SSW 20:20:07 26° W 20:24:29 10° NW visible
14 Aug ? 19:48:41 10° SSW 19:53:38 41° W 19:58:38 10° NNW visible
15 Aug ? 21:07:46 10° W 21:07:58 10° W 21:08:09 10° W visible
16 Aug ? 20:37:50 10° SW 20:41:16 17° W 20:44:44 10° NW visible
17 Aug ? 20:10:12 10° SSW 20:14:42 28° W 20:19:14 10° NW visible
18 Aug ? 19:43:12 10° S 19:48:14 46° W 19:53:19 10° NNW visible
19 Aug ? 21:00:48 10° WSW 21:02:29 11° W 21:04:09 10° WNW visible
20 Aug ? 20:32:04 10° SW 20:35:47 19° W 20:39:33 10° NW visible
